Погода Скулте

Погода Скулте : погода сейчас, прогноз погоды и архив. Всё, что Вы хотите узнать о погоде Скулте!

Поиск расширенной информации на нашем сайте:

Другие новости

Новости СМИ2

Главная страница сайта

Новости сайта

03.07.2017

Напоминаем, что на нашем специализированном сайте Метеоцентр.Азия вы можете получить высокодетализированные автоматические прогнозы погоды по пунктам России, СНГ и мира в авиационном формате (включающие направление и скорость ветра, видимость, явления погоды, количество и форму облачности, нижнюю и верхнюю границу облачности).


Погода Скулте - сегодня

Время (UTC), дата Ветер
(°,м/с) 
Видим.   Явления Облачность Т
(°С)
Тd
(°С)
f(%) Тe
(°С)
Pmin
(гПа)
dP
(гПа)
Po
(мм)
O2
(г/м3)
Тmin Tmax R s Состояние
почвы
15 08.02.18 170 (Ю) 1-2  н/о    н/о 
-7.7 -8.9 91 -7  1022.2  -0.2  766  319           
18 08.02.18 120 (ЮВ) 1-3  н/о    н/о 
-7.2 -8.1 93 -7  1022  -0.3  766  318           
21 08.02.18 180 (Ю) 2-2  н/о    н/о 
-7.3 -8.1 94 -9  1022.2  0.2  766  318           
00 09.02.18 110 (В) 1-2  н/о    н/о 
-7 -7.8 94 -7  1022.3  0.2  766  318           
03 09.02.18 120 (ЮВ) 1-2  н/о    н/о 
-6.7 -7.5 94 -6  1022.5  0.2  766  317           
06 09.02.18 090 (В) 1-2  н/о    н/о 
-6.4 -7.2 94 -6  1022.5  766  317           
09 09.02.18 090 (В) 2-3  н/о    н/о 
-7.2 -8 94 -9  1023.1  0.6  767  318           
12 09.02.18 050 (СВ) 1-2  н/о    н/о 
-8 -9.2 91 -8  1023.4  0.3  767  319           
15 09.02.18 080 (В) 1-2  н/о    н/о 
-8.8 -10 91 -9  1022.9  -0.4  766  320           
09 22.02.18 100 (В) 2-4  н/о    н/о 
-10.7 -13.6 79 -13  1032.3  0.5  773  326           
21 23.04.18 120 (ЮВ) 2-4  н/о    н/о 
+11.1 +3.4 59 +11  1006.8  -2.2  754  292           
06 25.04.18 220 (ЮЗ) 5-9  н/о    н/о 
+6.9 +5.9 93 +5  1001.4  0.4  750  294           
18 29.04.18 060 (СВ) 4-6  н/о    н/о 
+13.8 +8.3 69 +13  1011.2  -0.1  758  289           
21 06.05.18 320 (СЗ) 1-2  н/о    н/о 
+11.8 +7.1 73 +13  1024.9  -0.9  768  295           
15 21.05.18 350 (С) 2-4  н/о    н/о 
+19.6 +4.8 38 +21  1026  -2  769  288           
15 06.06.18 330 (СЗ) 5-9  н/о    н/о 
+11.9 +4.3 60 +11  1019.5  -0.2  764  294           
15 14.06.18 330 (СЗ) 1-2  н/о    н/о 
+21.3 +5.4 35 +21  1012.4  -0.8  759  283           
12 04.07.18 290 (З) 2-4  н/о    н/о 
+16.2 +13.5 84 +23  1008.8  0.5  756  285           
00 24.07.18 тихо () -0  н/о    н/о 
+18 +16.4 90 +29  1012.2  -0.4  758  283           
15 05.09.18 050 (СВ) 2-3  н/о    н/о 
+19.7 +15.9 79 +31  1018.3  0.1  763  283           
21 06.09.18 090 (В) 2-3  н/о    н/о 
+16 +11.9 77 +20  1016.2  0.3  761  288           
15 07.09.18 160 (Ю) 3-5  н/о    н/о 
+26 +6.6 29 +26  1015.8  -0.2  761  279           
15 10.09.18 360 (С) 1-3  н/о    н/о 
+19.9 +14.6 72 +28  1021.2  -0.7  765  284           
18 10.09.18 060 (СВ) 2-3  н/о    н/о 
+16.5 +13.9 85 +23  1021  -0.3  765  288           
00 14.09.18 240 (ЮЗ) 3-6  н/о    н/о 
+14.9 +9.2 69 +15  1017.5  -0.2  762  290           
Время (UTC), дата Ветер
(°,м/с) 
Видим.   Явления Облачность Т
(°С)
Тd
(°С)
f(%) Тe
(°С)
Pmin
(гПа)
dP
(гПа)
Po
(мм)
O2
(г/м3)
Тmin Tmax R s Состояние
почвы

Для получения пояснительной информации подведите курсор к названию столбца.

ПОГОДА Скулте - архив

Всё, что Вы хотите узнать о погоде Скулте - удобно и подробно!

Выберите нужную дату (начиная с 1 января 2015* года) и нажмите кнопку "Найти".
Будут отображены архивные сводки погоды по пункту Скулте, начиная с указанной даты.


Отображать данные в формате CSV (для использования в таблицах Excel)


Внимание! Наш архив погоды предназначен исключительно для личного некоммерческого использования в познавательных целях. Если Вам необходимы официальные справки о состоянии погоды (для производственных, юридических, коммерческих и т.п. целей), обращайтесь в органы Росгидромета.

*Примечание: данная дата относится к архиву по метеостанциям СССР (Россия, СНГ, Балтия).
Архив по метеостанциям Зарубежной Европы и Азии (кроме Китая) хранится 10 дней, по другим регионам земного шара (Китай, Африка, Америка, Австралия, Океания) - 1 день.

Скулте - район местоположения метеостанции


Название, широта, долгота, высота метеостанции:
Скулте 57.3°ш. 24.4°д. 10 м над ур. моря [Латвия]

Дополнительная информация

В oтличие oт бoльшинства пoгoдных сайтoв мы публикуем пoдрoбную метеoинфoрмацию в детальнoм прoфессиoнальнoм фoрмате.

Характеристики температуры и влажнoсти вoздуха измеряются на высoте 2 м в тени вдали oт зданий и деревьев.
Скoрoсть ветра измеряется на высoте 10 м (на урoвне рoста челoвека скoрoсть ветра ниже в 1.5-2 раза). Если метеoстанция нахoдится в гoрoде или в лесу, тo скoрoсть ветра занижена на 2-4 м/с пo сравнению с oткрытым местoм. Скoрoсть ветра над акватoриями крупных рек и oзёр, а также на вершинах хoлмoв на 2-5 м/с выше, чем в oбычных услoвиях.
Атмoсфернoе давление в разных тoчках местнoсти мoжет значительнo oтличаться oт давления на метеoстанции, в зависимoсти oт услoвий рельефа (при пoдъёме на 10 м давление пoнижается примернo на 1 мм рт.ст.).